Regional Weather Roundup
Issued by NWS

Home | Current Version | Previous Version | Graphics & Text | Print | Product List | Glossary On
Versions: 1 2 3 4 5 6 7 8 9 10 11 12 13 14 15 16 17 18 19 20 21 22 23 24 25 26 27 28 29 30 31 32 33 34 35 36 37 38 39 40 41 42 43 44 45 46 47 48 49 50
000
ASUS45 KBOI 041510
RWRID
WEATHER ROUNDUP FOR IDAHO
NATIONAL WEATHER SERVICE BOISE ID
800 AM MST WED MAR 04 2015

NOTE: "FAIR" INDICATES FEW OR NO CLOUDS BELOW 12000 FEET
WITH NO SIGNIFICANT WEATHER AND/OR OBSTRUCTIONS TO VISIBILITY

IDZ012-014-041600-
SOUTHWEST IDAHO


CITY           SKY/WX    TMP DP  RH WIND       PRES   REMARKS
BOISE          CLEAR     20  13  74 CALM      30.24R
CALDWELL       CLEAR     21   9  58 NW3       30.28R
MOUNTAIN HOME  CLEAR     23  13  64 NW3       30.23R
$$

IDZ016-017-041600-
SOUTHCENTRAL IDAHO


CITY           SKY/WX    TMP DP  RH WIND       PRES   REMARKS
BURLEY         CLEAR     21  13  71 S6        30.17R WCI  13
JEROME         CLEAR     20  10  65 S3        30.18R
TWIN FALLS     CLEAR     25   9  50 SW15      30.17R WCI  13
$$

IDZ019>023-041600-
SOUTHEAST IDAHO


CITY           SKY/WX    TMP DP  RH WIND       PRES   REMARKS
IDAHO FALLS    CLEAR     11   4  73 N7        30.16R WCI   0
POCATELLO      CLEAR     13  10  88 CALM      30.18R
REXBURG        CLEAR      3  -2  79 NE6       30.16R WCI  -8
$$

IDZ006-010-011-018-031-032-041600-
CENTRAL IDAHO MOUNTAINS


CITY           SKY/WX    TMP DP  RH WIND       PRES   REMARKS
MCCALL         PTCLDY    10   5  80 E3        30.14R
HAILEY         CLEAR     16   3  57 NW8       30.15R WCI   5
STANLEY          N/A     -2  -9  72 CALM      30.13R
SALMON         CLEAR     14  10  85 CALM      30.22R
CHALLIS        CLEAR     13   4  67 CALM      30.18R
$$

IDZ002-004-006-007-026-041600-
NORTHERN IDAHO


CITY           SKY/WX    TMP DP  RH WIND       PRES   REMARKS
LEWISTON       CLEAR     24  18  77 CALM      30.31R
LOWELL           N/A     22  18  85 NW3       30.39R
COEUR D`ALENE  CLEAR     16  10  79 CALM      30.24R
MULLAN PASS    CLEAR     12   3  67 SW7       30.03R WCI   1
$$


USA.gov is the U.S. government's official web portal to all federal, state and local government web resources and services.